ONEWEB-0281, 48999

Orbit data source: Space-Track

ONEWEB-0281, 48999 is a payload satellite owned by One Web (NAA) (UK) in LEO that was launched on Thu, 01 Jul 2021 UTC via a SOYUZ-2-1B launch vehicle from the Vostochny Cosmodrome (VOSTO). Payload-class satellites include a variety of spacecraft equipped with specific instruments for various scientific and technological missions. These include communications satellites like Starlink; space stations such as the ISS; scientific satellites like the Hubble; Earth observation satellites from companies like Planet Labs, Umbra, and HawkEye 360; GPS; miniature CubeSats for education and research; and military/defense satellites.

Loading next visibility...
Identifier
48999, 2021-060AJ
Orbit
LEO
Country
Flag of UKUK
Related business
Manufacturer
One Web
Mission
Operational Commercial Communications
Bus & Motor
ARROW, Unknown motor
Mass
148 kg wet, ~140 kg dry
Launch date (UTC)
2021-07-01 (4 years ago)
Launch vehicle
SOYUZ-2-1B
Launch site
Vostochny Cosmodrome (VOSTO)
Object type
Payload
Rocket body
Debris
Shape & HBR
Trap Box + 2 Pan, 6.7 m
Radar Cross Section
3.464 m², Large (>1 m²)

Expand to show TLE details & history
Last TLE update: 20 hours ago

TLE from 20 hours ago
0 ONEWEB-0281
1 48999U 21060AJ  25348.77370567  .00000022  00000-0  24848-4 0  9996
2 48999  87.9047 265.4911 0001752  77.6461 282.4866 13.16597329215369
Epoch: 2025-12-14T18:34Z
TLE epoch observation values (Epoch: 2025-12-14T18:34:08.169Z)
Latitude
-0.00004°
Longitude
-96.72475°
Altitude
1,200.355 km
Speed
7.254 km/s
True Right ascension
17h 41m 57s
True Declination
0° 00' 00"
Sunlit
Object was in daylight at epoch
Visualization orbit readout
Latitude
Unknown
Longitude
Unknown
Altitude
Unknown
Speed
Unknown
Apparent Right ascension
Unknown
Apparent Declination
Unknown
Sunlit
N/A
Visualization observer readout
Local Sidereal Time
13:24:39
Azimuth
Unknown
Elevation
Unknown
Doppler factor
Unknown
Orbital elements
Apogee altitude
1,196.182 km
Perigee altitude
1,193.529 km
Semi-major axis
7,572.992 km
Eccentricity
0.00018
Inclination
87.9047°
RAAN
265.4911°
Arg. of periapsis
77.6461°
True anomaly
282.467°
Mean anomaly
282.4866°
Eccentric anomaly
282.4768°
Mean motion
3.29338 °/min
Orbital period
109.31 mins
BSTAR
0.000024848
Loading maneuver chart data...
Computing Atmospheric mass density...
Loading historical data...
Loading historical data...
Loading historical data...
Loading historical data...
Loading historical data...
Loading historical data...
Loading historical data...

Documentation

Showing up to 5 results
|